Tracking 31029 objects as of 15-Jul-2025
HD Live streaming from Space Station
objects crossing your sky now

STARLINK-31400

Track STARLINK-31400 now!
10-day predictions
STARLINK-31400 is classified as:


NORAD ID: 59405
Int'l Code: 2024-064H
Perigee: 489.7 km
Apogee: 490.7 km
Inclination: 43.0 °
Period: 94.3 minutes
Semi major axis: 6861 km
RCS: Unknown
Launch date: April 5, 2024
Source: United States (US)
Launch site: AIR FORCE EASTERN TEST RANGE (AFETR)
Your satellite tracking list
Your tracking list is empty




NASA's NSSDC Master Catalog

Two Line Element Set (TLE):
1 59405U 24064H   25195.71000177 -.00002643  00000-0 -86568-4 0  9998
2 59405  43.0016 319.8330 0000731 280.5114  79.5656 15.27574383 72831
Source of the keplerian elements: AFSPC